{"data":{"norad_id":66154,"intl_designator":"2025-240J","name":"STARLINK-34625","alt_names":[],"object_type":"PAYLOAD","status":"ACTIVE","operator":null,"country":"US","launch_date":"2025-10-25","launch_site_code":"AFWTR","launch_vehicle":null,"mission":null,"orbit_class":"UNKNOWN","rcs_meters":null,"size_class":null,"mass_kg":null,"dimensions":null,"purposes":["comms"],"wikipedia_slug":null,"has_3d_model":false,"image_url":null,"decayed_at":null,"tle_current":{"epoch":"2026-05-25T02:02:48.426144Z","epoch_age_seconds":61067,"freshness":"FRESH","line1":"1 66154U 25240J   26145.08528271  .00016103  00000+0  55465-3 0  9994","line2":"2 66154  53.1590  68.0554 0001160 101.7590 258.3541 15.30197881 33733","mean_motion":15.30197881,"eccentricity":0.000116,"inclination_deg":53.159,"raan_deg":68.0554,"arg_perigee_deg":101.759,"mean_anomaly_deg":258.3541,"bstar":0.00055465,"rev_number":3373,"period_min":94.105476022418,"perigee_km":474.42640680469,"apogee_km":476.01638595265,"semimajor_km":6853.3583963787,"source":"CELESTRAK","updated_at":"2026-05-25T13:38:21.070167Z"}}}